カタログに戻る

VSP RF C1

運用中科学SSO
NORAD 59136·PAYLOAD·🇧🇪 Belgium

打ち上げ Mar 4, 2024 から Vandenberg Space Force Base

Loading…

次のパス (今後24時間)

TLE

最新Source: Space-Track

元期: Sep 14, 2026, 14:24 UTC

1 59136U 24043AQ  26257.60025517  .00003418  00000-0  12902-3 0  9998
2 59136  97.5743  36.9690 0001132  89.6334 270.5035 15.27730721140747

AllMySatでVSP RF C1をリアルタイム追跡

Download on the App Store